Theta_e
333 329 326 324 324 324 326 330 331 331 331 330 330 330 331 331 331 331 331 330 329 329 329 329 330 330 332 333 333 333 333 332 329 329 331 332 332 330 330 332 332 331 332 329 324 320 320 318 321 323 320 318 316 313 316 318 318 318 319 320 320 321 321 321 321 321 321 319 319 320 320 320 320 320 319 319 320 320 320 320 320 320 321 322 323
333 330 328 326 324 326 328 330 331 332 333 332 331 331 331 331 331 331 330 330 329 329 329 329 331 331 332 333 333 333 333 332 329 329 331 332 332 330 330 331 332 331 330 329 327 326 324 321 320 319 317 317 316 315 315 315 315 315 315 316 317 318 319 319 319 319 318 316 318 320 320 320 320 320 319 319 319 319 319 319 319 319 320 321 321
333 330 330 330 328 329 330 331 332 333 334 332 331 331 331 331 331 331 330 329 329 329 329 328 330 331 332 333 333 333 333 333 331 330 331 332 331 331 331 331 331 330 328 328 329 328 326 324 323 322 322 320 318 319 319 319 318 316 313 312 313 314 317 319 317 317 316 315 317 320 319 319 319 319 319 319 318 319 319 319 319 319 319 320 320
334 331 330 331 332 333 333 333 332 332 333 332 331 331 330 331 331 331 330 330 329 329 328 328 329 330 331 332 332 332 333 333 332 331 332 332 331 332 332 332 331 329 327 328 329 329 328 327 326 326 325 323 321 322 322 322 322 319 315 313 314 312 314 316 313 315 318 316 315 316 317 317 318 318 318 318 318 318 318 318 319 319 318 319 319
334 333 332 332 333 334 334 335 333 331 332 331 331 331 331 331 331 330 330 331 330 328 329 329 329 330 331 331 332 332 333 333 333 332 332 332 332 331 331 331 331 330 328 328 328 328 328 328 327 328 327 325 323 324 325 324 323 322 317 314 314 311 311 314 313 313 314 313 312 312 314 314 315 318 319 318 316 317 317 317 317 318 318 317 317
333 333 334 334 333 334 334 334 333 332 332 332 332 331 331 331 330 331 331 331 330 329 330 330 330 330 330 331 331 332 332 333 333 332 333 333 331 330 330 330 330 330 329 328 327 327 327 327 327 327 327 326 326 326 326 326 324 322 318 314 312 310 309 312 311 310 308 307 309 311 311 311 312 316 317 316 316 316 316 316 317 317 318 317 317
333 333 334 334 334 334 334 334 333 332 332 332 332 331 331 332 331 332 331 331 330 329 330 330 330 330 330 330 331 331 332 333 332 332 333 331 330 330 330 330 329 330 330 329 328 326 325 326 327 327 326 326 327 327 328 327 323 320 319 316 313 311 310 309 311 311 309 307 308 310 310 309 311 313 313 314 316 317 316 316 317 317 317 317 317
333 333 334 334 334 334 334 333 333 332 332 331 332 331 331 332 332 332 331 331 330 329 329 329 330 330 330 330 331 331 331 332 331 332 332 330 329 330 330 330 330 329 329 329 329 327 325 326 326 327 326 327 327 327 327 326 322 321 321 319 316 313 312 311 314 314 312 310 309 309 307 306 308 310 312 312 313 315 316 316 316 316 316 317 317
333 333 334 334 334 334 334 333 333 333 331 331 332 332 331 332 331 331 331 330 330 329 329 329 329 329 329 330 331 330 330 331 331 331 331 329 330 331 330 330 329 329 329 329 329 328 327 326 326 326 326 327 327 327 327 327 324 323 323 322 320 318 317 316 316 316 316 315 314 312 308 306 305 306 310 311 310 311 313 315 315 315 316 316 315
333 334 334 334 334 334 333 332 332 332 332 332 332 331 331 331 331 330 330 330 330 330 329 329 329 329 329 330 330 330 330 330 330 330 331 330 329 330 330 330 329 329 329 329 329 329 328 327 326 327 327 327 327 327 327 327 327 326 325 325 324 323 323 321 320 319 320 321 320 318 314 312 309 305 307 309 308 308 310 311 311 311 312 312 312
333 333 334 334 334 333 333 332 333 333 332 332 332 331 331 331 331 330 330 329 330 329 329 329 329 329 329 329 329 329 329 330 329 330 330 329 329 330 329 329 329 329 329 329 328 328 328 328 327 328 327 326 327 326 327 327 327 327 327 327 327 327 327 327 324 322 322 323 323 321 320 318 314 310 307 306 307 308 308 307 305 304 305 306 308
333 333 334 334 333 333 332 332 332 332 332 332 332 332 331 331 331 330 329 329 329 330 330 329 329 329 329 329 329 329 329 329 329 329 329 328 329 330 329 328 328 328 328 328 328 328 328 327 327 326 326 326 326 326 326 327 327 327 327 327 327 328 328 328 327 324 324 325 324 323 323 321 318 316 313 311 312 311 308 307 305 303 302 303 305
333 333 333 333 333 333 333 332 333 332 332 332 332 332 331 331 331 330 329 329 329 330 329 329 329 329 329 329 329 329 329 329 329 329 328 328 329 330 328 328 327 328 328 328 327 328 328 328 327 327 327 326 326 325 325 326 327 326 327 327 327 327 327 328 328 326 325 325 326 324 323 323 321 319 318 317 317 316 315 315 313 310 311 310 309
333 333 333 333 333 333 333 333 333 332 332 332 332 331 331 331 331 330 329 329 329 329 329 329 329 329 329 329 328 328 328 328 329 329 328 328 329 328 328 328 328 328 328 328 328 327 328 328 327 327 327 326 325 324 324 325 326 326 326 326 327 327 327 327 328 327 326 326 327 325 324 324 323 321 321 320 320 319 319 320 320 320 320 320 319
333 333 333 333 333 333 333 333 332 332 332 331 331 331 330 331 331 330 329 329 329 329 329 329 329 329 328 328 328 328 328 328 328 328 329 329 328 328 328 328 328 328 327 328 328 328 328 327 327 327 327 327 325 325 324 325 325 326 326 326 326 326 326 327 328 328 327 326 326 326 324 324 324 323 323 323 322 321 321 322 323 323 323 323 323
333 332 332 333 332 332 332 332 332 332 331 331 331 330 330 331 331 330 329 329 329 328 328 329 329 329 328 328 328 328 328 328 328 327 327 328 328 328 328 328 328 328 327 327 327 327 327 327 327 327 328 327 327 326 326 326 326 326 326 326 326 326 326 328 328 327 328 327 326 325 325 325 325 324 324 324 323 322 323 323 323 323 323 323 323
332 332 332 332 332 331 332 332 332 332 331 331 331 331 330 331 331 330 330 329 329 328 328 328 329 328 328 327 327 327 327 327 328 328 327 327 327 327 327 327 327 327 327 327 327 327 326 326 327 327 327 327 327 327 327 326 326 326 326 325 325 326 327 328 327 327 328 328 326 325 325 325 325 324 324 324 324 324 324 324 324 324 324 324 323
332 332 332 331 331 331 331 332 331 331 331 330 331 331 331 331 331 331 330 330 329 329 328 328 328 326 326 327 327 328 328 327 327 328 326 326 327 326 326 327 326 326 326 326 326 325 324 325 326 326 326 326 326 326 326 325 325 326 326 325 325 326 327 327 327 327 327 327 326 325 325 325 325 324 324 325 325 324 324 325 325 324 324 324 325
331 331 331 331 331 331 331 331 331 331 331 331 331 331 331 331 331 330 331 330 329 330 329 328 328 326 325 327 328 328 328 327 327 327 327 327 326 326 326 326 325 324 324 324 324 323 323 323 324 324 325 325 324 324 324 324 325 325 326 326 326 326 326 326 327 327 327 326 326 325 324 324 324 324 324 324 324 324 324 324 324 324 324 323 322
329 329 330 330 330 331 331 330 331 330 330 330 331 331 331 331 330 330 330 330 330 330 330 328 329 328 326 328 329 328 328 328 328 327 326 327 326 325 324 323 323 322 323 322 322 322 322 322 323 323 324 323 323 323 324 324 324 323 324 324 324 324 324 325 326 326 326 324 323 323 324 324 324 324 324 324 323 322 321 320 320 320 318 316 314
326 327 329 329 329 329 329 330 330 330 330 330 330 330 330 330 330 330 330 330 330 330 330 329 330 329 328 328 329 328 328 328 328 327 326 327 327 325 323 323 322 321 322 322 321 322 322 322 323 324 323 323 323 323 324 324 321 318 318 318 318 318 320 322 323 323 320 317 317 319 320 320 320 320 320 319 316 315 314 313 312 312 310 309 308
326 327 327 327 327 327 327 328 328 329 329 329 329 329 329 330 330 330 330 330 330 329 330 330 330 330 329 329 329 329 328 328 327 327 327 327 327 326 325 324 322 320 321 322 322 322 322 322 322 322 322 323 323 323 324 323 319 313 311 311 310 312 315 317 317 314 312 310 310 312 313 312 312 312 312 310 309 308 308 308 308 307 307 306 306
326 326 326 326 326 325 326 326 326 326 327 327 328 328 328 329 330 330 330 330 330 329 329 330 330 329 329 329 329 329 329 329 328 327 327 327 326 325 325 324 323 320 320 321 319 319 320 320 320 321 321 323 324 323 322 319 313 308 307 307 306 307 309 309 308 306 306 306 305 305 305 305 305 305 305 304 304 304 303 303 303 303 303 303 302
325 325 325 325 324 324 325 325 324 325 326 326 327 327 328 328 329 329 329 329 329 329 330 329 329 330 329 329 330 330 329 329 329 328 328 327 326 325 324 322 322 320 318 318 316 315 315 316 317 318 319 321 321 319 315 310 307 305 305 305 304 304 304 303 303 303 303 303 303 303 303 303 302 302 302 302 302 302 302 302 302 301 301 301 301
325 325 325 324 324 324 324 324 323 324 326 326 327 327 327 327 328 328 328 329 329 329 329 329 329 329 330 329 329 329 328 328 328 328 327 327 325 325 323 322 321 320 318 317 315 313 312 312 313 313 314 315 314 310 307 304 304 303 302 303 302 302 303 303 304 304 303 303 303 302 302 302 302 301 301 301 301 301 301 301 301 301 301 301 301
325 325 324 324 324 324 323 322 321 322 325 326 327 327 327 327 327 327 328 328 328 328 328 328 329 329 329 329 328 328 328 327 327 328 327 326 325 324 322 321 321 320 317 316 315 314 312 310 310 310 309 308 307 305 303 302 302 302 303 303 303 304 304 304 304 304 303 303 303 303 303 303 303 303 302 302 302 301 301 301 301 301 301 300 300
324 324 324 323 324 324 322 320 319 322 325 326 326 326 326 326 326 327 327 327 326 327 328 328 328 328 329 329 328 327 326 326 327 327 327 327 325 323 322 321 319 318 317 316 315 314 312 310 309 308 307 305 304 302 301 302 302 303 305 305 304 304 304 304 304 304 304 305 305 305 305 306 306 306 306 305 305 304 303 302 301 301 301 301 300
323 323 323 324 324 323 321 320 319 322 325 325 324 324 325 326 326 326 326 326 326 327 327 327 328 328 329 329 328 327 326 326 327 327 327 326 324 322 322 321 319 318 317 317 316 313 311 310 309 307 306 303 302 302 303 303 304 305 305 304 304 304 305 305 305 305 306 306 306 307 307 307 307 307 307 307 307 306 305 303 302 302 302 302 301
323 322 322 323 324 323 321 320 319 321 324 323 319 319 321 325 326 325 325 325 325 325 325 326 327 328 329 328 327 327 326 325 326 326 326 324 322 321 321 321 320 319 319 318 316 313 311 310 308 307 305 303 302 304 304 304 305 304 304 303 305 305 306 306 306 306 306 307 307 307 307 307 307 307 307 308 307 307 307 305 304 302 302 302 302
322 321 321 322 324 323 321 320 319 321 323 323 321 318 318 323 324 323 322 321 321 323 324 325 325 326 327 327 327 327 326 326 325 325 324 323 321 320 320 320 320 320 320 318 316 314 311 309 309 307 305 303 303 305 304 304 304 303 303 304 306 306 306 306 306 306 306 306 307 307 307 307 307 307 307 307 308 307 307 306 305 303 302 302 302
322 321 321 321 323 323 322 320 319 319 321 322 323 320 317 321 322 319 318 319 320 323 324 325 325 325 326 326 327 326 325 325 325 324 324 322 320 319 318 318 318 319 320 318 315 314 312 311 310 307 305 305 304 304 303 303 303 303 304 305 306 306 306 306 306 306 306 306 306 306 307 307 307 307 307 307 307 307 307 307 306 304 303 302 301
321 321 320 320 322 324 322 320 318 318 318 319 322 321 318 319 318 316 318 320 321 322 323 325 326 325 326 326 326 326 325 324 324 324 323 321 319 319 318 317 315 316 318 317 315 315 313 312 311 307 305 305 305 304 304 303 303 304 305 306 306 306 306 306 306 307 306 306 306 306 306 306 306 306 306 307 307 307 307 306 306 304 303 302 301
321 320 319 319 321 323 322 319 317 315 314 316 320 320 317 316 316 316 318 318 318 318 321 324 326 325 325 325 325 325 323 323 324 324 323 320 318 318 318 317 314 314 316 316 315 315 312 310 311 308 305 304 305 306 305 305 304 305 306 306 306 306 306 306 306 306 306 306 306 306 305 305 305 305 306 306 306 306 307 306 306 304 303 302 302
319 318 319 319 320 321 320 317 316 314 313 315 319 319 316 315 315 315 315 315 315 315 317 321 324 325 325 325 325 324 323 323 323 323 322 320 318 319 318 318 317 315 315 315 315 315 313 311 311 309 306 305 306 307 306 307 307 306 307 306 306 306 306 306 306 306 306 306 305 306 305 305 305 305 305 306 306 306 307 306 305 304 303 302 302
318 318 319 318 318 319 318 316 315 314 314 315 318 317 315 314 314 314 314 314 314 314 314 316 319 322 324 324 324 323 322 322 323 323 321 319 319 320 319 319 318 317 316 315 314 314 314 314 312 311 309 307 308 308 307 308 307 307 307 307 306 306 306 306 306 305 306 306 305 306 305 305 305 305 305 305 306 306 307 306 304 303 303 302 302
318 318 318 318 317 317 316 315 314 314 314 315 316 315 315 315 314 314 314 313 313 314 313 313 313 316 319 322 323 322 321 321 322 321 321 319 319 321 321 320 319 319 318 317 315 314 314 314 312 311 311 310 310 310 309 308 307 307 308 309 308 307 307 307 306 306 306 306 306 306 306 307 306 306 305 305 306 307 306 305 304 303 302 302 302
317 318 318 318 317 317 316 315 313 313 313 314 314 314 314 315 315 315 315 314 314 314 314 314 313 313 314 316 318 319 320 321 321 322 321 321 321 321 322 321 320 320 319 318 316 315 313 314 312 311 311 311 311 310 309 308 308 308 309 309 309 308 308 307 306 306 306 306 306 306 307 307 307 306 306 306 307 307 305 304 303 302 302 302 302
316 317 317 318 317 316 316 315 314 313 313 313 314 314 314 314 315 316 316 315 315 314 314 313 314 313 313 313 314 315 316 317 318 319 320 320 320 319 318 318 317 316 317 317 316 315 314 314 313 310 309 310 311 310 309 309 310 309 309 309 308 308 308 307 307 307 307 306 306 306 307 307 306 306 306 307 307 306 304 302 302 302 302 301 301
316 316 316 317 317 316 316 316 315 314 314 314 314 314 314 314 315 315 315 315 314 314 314 314 313 313 312 313 313 313 314 314 314 315 315 315 315 315 314 315 314 313 313 315 315 315 315 315 313 311 310 310 311 311 309 308 309 310 310 310 310 309 308 308 308 307 307 306 306 306 306 306 306 307 307 307 306 304 302 302 301 301 301 301 300
316 316 316 315 315 315 316 316 315 315 314 314 314 314 314 314 315 315 315 315 315 314 314 314 313 313 313 313 313 313 313 313 313 313 314 314 314 314 314 314 314 313 312 313 315 315 315 315 313 312 312 311 310 311 310 308 309 310 310 310 311 311 309 308 308 307 307 306 306 306 306 306 306 306 306 305 303 302 301 301 300 300 300 300 300
316 315 315 315 315 315 315 316 315 315 314 315 315 315 315 315 315 315 315 315 315 314 314 314 314 313 314 314 315 315 314 314 314 314 315 316 316 315 315 315 315 314 312 312 313 314 314 315 314 313 312 312 311 311 310 309 309 311 310 309 311 312 310 308 307 307 307 306 306 306 306 306 306 305 304 303 302 301 300 300 300 299 299 299 299
316 316 316 316 316 316 316 315 315 315 315 315 315 315 316 316 316 316 315 314 314 314 314 314 314 314 314 314 315 316 316 316 316 316 317 317 317 317 317 316 315 314 312 311 312 313 314 314 314 313 312 312 312 312 311 310 310 310 310 309 311 311 310 309 308 306 306 306 307 307 306 306 305 304 303 302 300 300 300 299 299 299 299 298 298
317 318 317 316 316 317 317 317 316 315 315 315 315 315 316 316 316 316 316 315 315 315 315 315 315 315 315 315 315 315 316 316 317 317 317 317 317 318 318 318 317 316 314 313 312 312 312 313 313 313 312 313 313 311 311 311 310 309 309 310 311 311 310 311 310 308 306 306 307 307 306 305 304 303 302 301 300 299 299 299 298 298 298 297 297
317 318 317 314 316 317 317 318 318 317 317 317 317 316 316 316 317 317 317 316 316 315 316 316 316 316 316 317 317 317 316 317 317 317 317 318 318 318 318 318 318 318 316 315 314 312 312 312 313 313 312 313 314 311 309 310 309 308 309 311 312 311 311 312 312 310 307 306 307 307 306 304 303 302 301 300 299 299 298 298 298 298 297 297 296
318 319 318 317 318 318 318 318 318 317 317 317 317 317 317 317 317 317 317 317 317 316 316 317 317 318 318 318 318 318 318 318 318 318 318 318 318 319 318 318 318 318 317 316 315 314 313 313 314 314 313 313 314 312 309 308 308 308 309 311 312 312 312 312 312 309 307 306 307 307 306 304 301 302 302 300 299 298 298 298 298 297 297 296 296
318 319 319 318 319 318 318 317 317 317 317 317 317 317 317 317 317 317 317 317 318 318 317 318 318 318 318 319 319 319 319 319 319 319 320 320 320 319 319 318 318 317 317 317 316 315 314 314 314 315 315 313 313 312 311 310 309 309 311 312 312 312 311 311 310 308 307 307 306 306 306 304 300 301 302 300 299 298 298 298 297 296 296 295 295
320 319 319 319 319 318 318 318 318 318 318 318 318 318 318 318 318 318 318 318 318 318 319 319 319 319 319 320 320 320 320 319 319 320 320 320 320 319 319 318 319 318 317 317 316 316 315 314 314 314 314 314 313 313 313 311 309 309 311 311 311 310 309 308 307 306 305 305 304 303 305 304 300 300 302 301 299 299 299 298 297 295 295 295 295
320 320 319 318 318 318 318 318 318 319 319 318 318 318 319 318 318 318 319 319 319 319 319 319 319 319 319 319 319 319 319 319 319 320 320 319 318 318 317 318 318 318 318 317 317 316 315 314 314 314 314 314 313 313 313 312 311 310 310 309 309 308 308 306 305 303 302 302 301 301 303 303 300 300 301 300 299 298 298 298 297 295 294 294 294
320 320 320 319 318 318 318 318 319 319 319 319 319 319 318 318 318 317 318 318 319 319 318 318 318 318 318 319 319 319 319 319 319 319 319 318 317 317 317 317 317 317 318 317 316 315 314 314 315 315 314 314 313 314 313 311 310 309 309 308 307 307 307 306 305 303 301 300 299 299 301 302 300 299 299 299 298 297 297 297 296 294 294 294 293
315 316 316 316 316 317 317 318 319 319 319 318 318 319 319 318 317 317 317 317 318 319 319 319 319 319 319 319 319 318 318 318 318 318 318 317 317 317 317 317 317 317 317 317 316 314 313 313 314 313 313 313 312 312 311 309 309 309 309 309 308 307 307 308 306 304 302 300 299 299 300 301 300 298 298 298 298 298 296 296 296 295 294 294 293
307 308 310 311 310 310 311 312 313 314 314 313 314 314 316 317 318 318 317 318 318 319 319 319 319 319 319 319 319 319 319 319 318 318 318 317 317 317 318 318 317 317 316 316 315 313 313 312 312 312 312 312 310 309 309 309 309 309 308 307 307 306 306 306 305 303 303 302 299 298 299 300 299 298 297 297 297 298 296 295 295 295 294 293 293
Wind_Speed
11 13 16 16 14 13 12 11 11 11 11 11 9 9 8 7 6 6 7 6 7 8 9 10 9 10 10 11 11 10 10 10 10 8 6 6 7 9 11 9 6 4 7 8 9 11 10 10 10 8 7 7 8 8 8 8 7 7 7 7 7 7 7 8 8 8 8 8 9 10 10 10 11 11 11 11 12 11 11 11 10 8 9 10 11
12 14 15 15 14 13 12 11 11 10 9 9 9 8 7 6 6 6 7 7 7 8 9 10 9 10 11 11 11 10 10 11 11 10 7 7 7 9 10 8 6 5 7 7 7 10 11 10 10 8 8 9 10 10 10 9 8 7 6 6 6 6 7 7 7 8 8 8 9 10 10 10 10 10 10 10 11 11 11 12 12 10 10 10 10
13 14 13 14 14 13 12 11 10 8 7 8 8 7 7 6 6 6 7 7 8 9 9 9 9 8 10 11 11 9 8 9 10 9 8 8 8 8 9 7 5 6 7 7 5 7 9 9 8 8 9 10 10 11 10 9 8 7 6 5 5 5 6 6 6 7 8 9 9 9 9 8 9 9 10 10 10 11 11 11 12 11 10 10 10
12 12 13 13 12 11 10 9 9 8 7 7 7 7 7 7 7 7 6 6 7 8 8 9 9 8 8 7 8 7 6 7 7 9 9 9 9 8 8 5 6 7 8 7 4 5 7 7 7 7 8 9 9 9 9 9 8 7 6 5 5 5 5 6 6 7 8 8 8 8 8 8 7 8 9 8 8 10 10 10 10 11 10 9 10
11 11 12 12 11 10 9 7 8 8 7 7 6 6 7 7 7 6 6 5 6 7 7 6 6 6 6 5 6 6 6 7 7 8 9 9 9 8 8 6 7 9 8 7 4 4 5 6 6 6 7 7 7 7 8 8 8 7 6 5 5 5 5 6 6 7 7 7 8 8 7 7 7 7 8 7 8 9 10 10 10 10 11 10 10
11 10 10 11 10 9 8 7 7 7 7 6 5 5 6 7 6 6 5 5 6 6 5 4 4 4 4 4 4 5 6 6 7 8 8 10 10 10 9 7 6 9 7 6 5 5 5 5 6 6 5 5 5 5 6 7 8 7 7 6 6 6 7 6 7 7 8 8 7 7 7 7 7 7 7 7 8 9 9 10 10 11 11 11 12
10 10 10 10 9 8 7 7 7 7 7 7 6 5 5 6 6 5 6 5 5 5 4 4 4 4 4 4 4 5 5 6 7 8 8 9 11 10 9 7 5 8 8 5 6 6 7 6 5 5 5 5 4 3 4 6 7 8 8 7 6 6 7 7 7 7 7 7 7 7 7 7 7 7 7 7 8 8 8 9 9 9 10 11 11
10 10 9 9 8 7 7 7 7 7 7 8 7 6 6 5 5 5 6 5 5 5 4 4 5 4 4 4 5 5 5 6 7 9 8 9 10 10 9 8 6 8 8 6 6 6 6 6 6 6 5 4 4 4 4 5 7 8 9 8 8 7 6 6 6 6 7 7 7 7 7 7 7 7 7 7 7 7 7 8 8 8 9 9 10
11 10 9 9 8 7 7 7 8 8 8 8 7 7 6 6 6 5 5 6 5 5 5 5 5 5 5 5 6 6 6 7 8 9 8 7 6 7 9 9 8 8 8 7 6 6 5 5 6 6 5 5 5 5 4 5 6 8 9 9 9 9 8 8 7 7 9 9 9 8 7 7 8 8 7 7 7 7 7 7 7 8 8 8 8
10 10 9 9 8 7 8 9 9 9 9 8 8 8 8 7 7 5 5 6 6 6 6 6 6 6 7 6 6 6 7 8 9 9 8 5 4 6 8 8 8 8 8 7 6 6 5 5 5 5 4 4 5 5 5 4 4 5 6 7 7 8 8 8 9 9 10 11 10 9 7 7 8 7 7 7 7 7 7 7 7 7 7 8 8
10 10 9 8 8 8 9 10 10 9 9 8 8 9 9 8 7 6 6 5 5 7 7 8 8 7 8 8 7 8 8 9 9 9 8 5 4 5 6 7 8 7 6 5 5 6 6 5 4 3 3 3 4 5 5 4 3 3 3 3 3 3 4 5 6 8 9 9 9 10 8 8 8 8 8 8 8 8 8 8 8 8 8 8 8
10 10 9 9 10 10 11 11 10 10 10 9 9 9 10 9 7 6 7 6 6 7 8 10 10 10 10 10 9 9 8 9 9 9 8 7 5 5 5 6 7 7 5 4 3 4 6 4 2 2 2 2 2 3 3 3 3 2 0 1 1 0 1 2 2 4 6 6 6 7 9 9 8 9 9 9 8 8 9 9 8 8 9 8 8
11 10 10 10 10 11 11 11 10 9 9 8 9 10 10 9 7 7 7 8 8 8 10 12 12 12 11 10 10 10 9 9 9 8 8 8 7 6 5 5 6 6 6 4 3 4 5 4 2 1 0 1 1 1 1 1 2 2 2 2 2 2 2 1 2 3 3 5 4 4 7 8 8 8 9 9 7 7 9 9 9 9 10 9 9
10 9 9 9 10 10 10 10 10 8 7 8 9 10 10 9 7 7 7 8 9 10 11 11 10 10 10 10 9 10 9 9 9 8 8 8 8 7 7 6 7 7 7 7 5 5 4 4 3 2 1 0 0 1 1 1 2 2 2 3 3 2 2 2 2 3 4 5 5 3 4 6 7 8 8 9 8 7 9 10 10 11 10 11 10
9 9 9 9 10 11 10 10 9 8 7 8 9 11 11 9 8 8 7 8 9 11 11 9 9 10 10 7 5 5 6 7 7 7 7 8 7 7 7 7 7 7 7 7 6 5 5 4 4 2 1 1 1 0 1 2 3 3 3 3 2 1 1 2 1 3 3 4 7 7 3 4 6 7 7 6 6 7 8 10 10 10 10 10 9
9 9 9 9 10 10 10 9 8 8 8 9 10 11 11 10 9 8 9 9 10 11 9 7 9 9 6 4 4 4 3 5 7 7 7 7 7 6 6 6 6 6 7 7 5 5 5 4 4 3 2 1 1 1 1 2 2 2 2 2 1 2 3 3 1 2 2 3 6 9 6 4 4 5 5 4 4 5 7 8 8 8 8 8 7
9 10 10 9 9 9 9 8 9 9 9 10 10 10 10 10 10 9 9 10 10 10 8 7 9 7 4 4 3 2 3 7 8 6 5 6 6 5 4 5 5 6 7 6 4 4 4 4 4 3 3 2 2 2 2 2 2 2 3 3 4 5 5 3 3 4 4 4 5 6 6 6 4 5 5 4 4 4 5 5 5 6 6 6 6
10 10 10 9 9 8 9 9 9 9 10 10 10 9 10 10 11 10 9 8 8 9 9 8 8 6 4 3 1 0 6 9 7 4 5 6 6 5 6 8 8 7 6 5 4 4 3 3 3 4 3 4 4 4 5 6 7 8 8 7 7 7 7 6 6 8 8 8 9 7 5 4 4 4 4 4 3 3 2 2 3 5 5 5 6
10 10 10 9 9 9 9 9 8 9 10 11 10 10 10 10 11 11 9 8 8 9 9 8 7 6 4 2 3 3 8 7 5 5 5 5 7 9 10 10 9 7 6 5 5 5 6 6 5 6 7 7 7 6 7 10 12 13 13 13 13 11 11 11 11 12 13 14 14 12 12 11 9 8 7 6 4 3 2 1 2 4 4 5 7
11 10 10 10 10 9 9 9 8 8 8 9 9 9 9 10 11 11 10 9 9 8 8 9 9 6 5 3 3 5 6 4 5 6 5 5 7 9 11 11 10 9 7 7 7 8 8 8 8 8 9 10 10 10 11 12 13 13 14 14 15 15 15 15 17 17 16 16 15 15 15 14 13 12 12 11 9 8 7 5 5 6 6 7 9
12 11 10 10 9 9 9 8 8 7 7 8 8 8 8 9 9 9 10 12 11 9 8 8 9 7 6 5 4 6 5 3 6 6 5 7 6 7 8 9 11 9 8 9 9 10 9 8 9 10 11 13 13 13 13 12 11 12 12 11 12 13 14 15 17 16 15 15 15 16 16 14 14 13 12 12 12 11 10 9 9 9 9 9 9
12 11 11 10 9 8 8 7 7 7 7 7 7 7 8 9 9 8 9 10 11 10 9 8 8 8 8 6 6 7 5 5 6 6 6 6 7 8 8 8 8 7 8 9 10 10 9 8 9 8 10 13 13 12 12 11 11 11 10 10 10 12 13 14 15 15 14 15 16 16 15 14 14 13 12 11 11 10 10 9 9 8 8 8 8
12 11 10 10 9 8 8 7 7 7 7 7 7 7 7 8 9 8 8 8 9 10 10 9 8 8 9 8 6 6 5 5 7 9 7 7 8 9 8 8 9 7 7 9 9 9 8 8 8 8 9 12 12 12 12 11 11 11 11 11 12 13 13 14 15 15 16 16 16 16 15 14 13 13 12 11 11 10 10 9 9 8 8 8 8
11 11 11 10 9 8 8 7 6 6 7 7 7 6 7 7 7 7 7 8 9 9 9 9 8 8 9 9 7 6 5 4 7 9 7 7 9 9 9 9 9 7 7 8 8 7 7 7 8 9 10 12 12 12 12 11 11 11 12 13 13 15 15 16 16 16 17 17 16 16 15 15 14 14 13 13 13 12 12 11 11 11 10 10 10
11 11 11 9 8 8 7 6 6 6 6 7 7 6 6 6 6 6 7 7 8 8 8 8 8 8 9 9 7 6 5 4 7 9 7 9 10 10 10 9 9 9 8 7 8 7 7 7 8 10 11 12 13 12 11 12 12 12 13 14 15 16 17 17 18 18 18 18 18 18 18 18 17 16 16 15 15 14 14 13 12 12 11 11 10
12 11 10 8 8 7 6 6 6 5 6 7 7 7 6 6 6 5 5 5 6 6 6 7 8 8 8 8 7 6 5 5 8 10 10 11 11 11 12 9 9 10 8 7 7 7 7 7 8 9 10 11 12 11 12 13 13 14 15 16 16 16 17 18 19 20 21 21 21 22 22 22 21 21 20 19 18 17 16 16 15 14 13 12 11
13 12 10 8 9 8 6 6 6 6 6 6 6 6 6 5 6 5 5 4 4 4 5 6 7 7 7 6 6 6 5 5 8 10 10 10 12 15 15 10 7 7 7 7 6 6 8 7 7 7 9 10 11 12 13 14 15 15 15 17 18 18 20 21 21 22 22 22 22 22 22 22 22 22 22 22 21 20 19 17 16 15 14 13 12
13 12 10 10 11 10 8 6 5 5 6 7 6 6 6 5 6 6 5 4 4 4 5 6 6 7 7 6 6 7 6 5 7 9 9 9 13 15 13 11 9 6 5 6 5 6 8 7 6 6 7 10 12 13 14 14 15 15 16 18 21 21 21 20 20 20 20 20 20 21 21 21 21 21 20 21 20 20 19 18 17 15 14 13 12
12 11 11 11 12 11 10 8 6 6 6 6 6 6 6 7 7 7 6 5 5 5 5 6 6 7 7 6 7 7 6 6 8 10 10 11 15 14 9 7 8 7 5 5 5 7 8 6 6 7 8 11 14 15 14 14 15 17 19 21 23 21 19 18 17 17 18 18 18 18 18 18 18 18 17 17 18 18 18 17 16 14 13 12 11
12 12 11 11 12 12 11 9 7 6 6 5 4 4 5 7 7 7 6 5 5 5 5 6 6 7 7 7 8 7 6 7 9 10 10 13 18 15 9 6 6 6 6 6 5 6 8 7 5 7 11 12 14 15 15 15 17 19 22 22 21 19 17 16 15 15 14 14 14 14 14 14 14 14 14 14 15 15 16 16 14 13 12 11 9
12 12 11 10 12 13 11 9 7 6 5 4 4 4 5 6 7 6 5 5 5 5 5 5 6 7 7 8 8 7 7 8 9 9 10 15 19 14 9 8 5 5 7 7 5 6 7 7 6 8 12 14 14 15 17 18 19 21 22 20 18 17 15 14 12 11 11 10 10 10 10 10 10 10 11 11 12 12 13 13 13 12 11 10 9
11 11 10 10 12 14 12 10 7 6 5 4 5 4 4 5 6 6 6 6 6 6 6 6 7 7 8 8 8 8 8 9 9 10 11 17 18 11 8 8 5 5 7 5 5 7 7 7 8 10 13 15 15 15 17 19 20 21 20 18 16 15 14 12 10 9 8 7 6 6 6 6 6 6 7 8 9 10 11 11 11 10 10 9 8
11 11 11 11 12 13 12 9 7 6 5 5 7 6 5 6 7 7 6 6 6 7 7 8 8 9 9 9 9 9 8 8 10 11 13 17 17 11 9 8 5 6 7 3 5 9 10 9 9 10 14 17 15 15 16 18 20 19 18 17 15 14 13 11 9 7 6 5 4 4 3 3 2 2 3 5 7 8 10 11 10 10 9 9 8
11 10 12 12 12 13 11 9 7 6 6 6 8 7 5 6 7 6 5 5 6 7 8 8 9 9 10 10 10 9 8 8 10 11 13 15 14 11 9 8 5 5 6 4 4 8 10 10 10 11 15 16 14 15 17 17 18 18 15 15 15 13 12 11 9 7 6 5 4 3 2 1 1 2 3 4 5 7 10 10 10 9 9 8 7
11 11 12 12 12 12 10 9 7 7 6 7 7 6 6 7 6 5 4 3 4 6 7 8 8 8 8 9 9 9 9 10 11 11 13 13 12 9 9 9 8 6 6 5 3 6 9 10 11 11 14 15 13 14 16 15 16 16 12 12 13 12 12 10 9 8 7 6 5 4 3 3 4 5 5 5 5 8 10 10 9 9 8 7 7
11 11 12 12 11 11 10 8 7 7 6 6 6 6 5 5 5 4 3 3 3 5 5 6 7 7 7 7 8 8 9 9 10 11 12 13 11 9 9 10 10 10 10 8 6 6 7 9 11 11 13 15 14 13 15 16 17 16 12 11 12 12 12 12 10 9 9 8 7 6 6 5 6 6 5 5 5 8 10 10 9 8 8 7 6
11 12 12 11 10 10 9 8 8 8 7 6 5 6 5 5 5 4 5 5 5 6 6 6 7 7 6 6 6 6 6 7 9 10 11 12 12 11 10 10 10 11 12 12 9 8 8 10 12 12 12 14 13 13 15 16 16 16 14 13 13 12 13 13 12 11 10 9 9 8 7 6 6 5 5 4 6 9 10 9 8 7 6 5 5
11 11 11 10 9 8 7 7 8 8 7 6 5 5 5 5 5 5 5 5 5 6 6 6 6 6 6 6 5 5 5 5 7 8 9 10 10 11 11 9 8 9 11 11 11 10 10 10 11 14 15 14 14 14 16 17 15 15 15 14 14 15 16 15 14 15 13 11 10 9 7 6 6 5 5 6 8 9 9 8 6 5 4 4 4
10 10 9 8 7 7 6 6 8 7 7 7 6 5 5 5 5 4 4 4 4 4 5 5 5 5 5 5 4 4 4 4 5 5 5 6 6 6 7 6 6 6 7 9 10 11 11 10 10 13 15 16 15 13 16 19 16 14 14 14 14 16 17 15 13 14 13 11 10 9 8 7 6 5 6 7 8 8 7 5 4 4 4 4 5
9 9 8 6 6 6 5 5 6 7 7 7 6 5 4 4 3 3 3 3 3 4 3 3 2 3 3 3 3 4 4 4 4 5 4 4 4 4 5 5 6 6 6 7 9 11 11 11 11 11 13 16 16 14 15 18 17 15 16 16 13 12 15 15 13 12 11 10 9 8 7 6 4 5 6 7 7 6 4 4 4 4 5 6 7
7 7 7 6 5 4 4 4 5 6 7 6 5 4 3 2 1 2 3 4 4 4 3 3 2 2 2 2 2 2 3 4 4 4 4 3 2 3 3 4 5 6 6 7 7 9 10 11 11 11 11 14 16 16 16 19 19 16 18 19 13 10 11 12 12 14 13 10 8 7 7 5 4 4 4 4 5 5 3 4 5 6 7 8 9
5 5 5 5 3 1 2 3 4 5 5 5 4 4 3 3 3 3 3 5 5 5 5 4 4 4 4 4 4 4 3 4 4 3 3 2 2 2 3 4 5 6 7 8 8 8 9 11 11 11 12 13 16 18 19 21 22 19 18 19 14 11 11 10 10 14 15 11 8 7 7 6 5 4 3 4 5 5 3 4 6 7 8 9 10
4 6 5 2 2 3 4 3 3 4 5 5 4 5 5 5 5 5 5 6 6 6 6 6 5 5 5 5 6 7 6 6 5 5 5 4 4 4 5 5 5 6 7 8 10 10 10 11 10 11 13 13 16 20 20 20 22 22 20 18 15 14 14 12 10 11 15 13 9 6 6 7 5 3 4 4 5 5 5 6 7 8 9 10 11
6 6 5 2 4 7 7 5 4 4 5 5 5 6 7 8 8 8 7 7 8 8 8 7 6 6 6 6 7 7 8 9 8 8 8 7 7 7 8 8 8 8 9 9 10 12 13 13 12 13 15 15 15 21 23 22 23 24 21 18 16 16 15 14 10 9 12 14 9 5 6 7 5 5 5 5 6 6 7 7 8 9 10 12 12
6 4 3 4 7 9 9 8 6 6 5 5 6 7 8 10 11 11 11 10 10 10 9 8 8 8 8 9 9 10 10 11 11 10 10 9 10 10 10 11 11 11 12 12 13 14 15 15 15 16 18 18 17 20 24 24 25 24 22 18 16 16 14 12 10 9 11 12 8 5 6 6 6 5 5 6 6 7 8 8 10 11 13 13 13
5 3 4 5 7 8 8 8 7 6 5 5 7 8 9 10 11 12 13 13 12 11 11 11 11 10 10 11 12 13 13 13 13 12 12 12 12 12 12 12 13 14 15 16 17 17 18 18 17 17 19 20 19 20 22 23 24 24 21 18 17 16 14 12 11 11 11 10 8 5 5 6 6 5 5 5 6 7 8 10 13 14 14 13 13
6 5 5 5 5 5 6 6 5 4 3 2 3 4 5 6 7 8 10 11 11 12 12 12 11 11 11 12 14 14 15 15 15 14 13 13 14 14 14 14 15 16 17 18 20 21 22 22 21 21 21 21 20 19 19 20 23 24 22 19 18 17 15 12 11 10 9 9 8 5 4 4 5 5 5 5 5 7 8 11 14 13 13 13 13
8 8 7 6 6 5 4 4 4 3 2 1 1 2 2 3 4 4 6 7 8 10 11 12 12 12 12 14 15 16 17 17 16 15 13 14 14 15 15 16 17 18 19 21 22 23 23 23 22 22 22 21 19 17 17 18 22 23 20 17 16 16 14 10 8 8 7 8 8 5 4 5 5 5 6 5 6 8 8 9 10 11 10 11 13
8 8 8 7 6 5 4 3 3 3 1 1 3 3 4 5 5 6 6 7 8 9 11 12 12 13 14 15 16 17 18 18 17 16 16 15 16 16 17 17 18 20 21 22 23 22 21 20 20 19 19 18 17 16 15 16 18 19 17 15 15 15 14 10 8 8 7 7 8 6 4 5 5 4 6 7 8 9 6 5 6 8 9 11 14
11 10 9 8 7 6 5 4 4 4 2 2 4 4 6 7 8 8 10 10 10 10 12 13 13 14 14 15 15 16 17 18 18 17 17 17 17 18 18 18 18 19 22 24 23 21 19 17 17 16 15 15 15 15 16 17 16 14 13 13 14 14 11 8 7 8 6 6 7 6 4 4 4 3 6 8 7 6 3 3 4 6 9 13 15
17 15 13 11 11 11 9 8 6 6 5 3 4 4 3 5 6 7 8 10 10 10 11 13 14 15 15 15 15 15 16 16 17 16 16 16 16 15 14 15 16 16 19 22 22 21 19 18 17 16 15 15 15 16 17 17 15 14 13 13 14 12 8 6 6 7 5 5 7 6 3 3 3 3 4 6 6 3 2 3 5 8 11 13 13
Wind_Direction
148 149 152 154 154 152 147 140 134 131 130 128 125 123 122 122 120 113 114 116 117 125 137 144 148 154 156 157 161 167 172 177 180 180 167 145 143 142 135 139 152 123 105 93 76 82 85 88 99 104 101 90 85 84 88 91 89 87 86 89 94 95 94 92 92 89 86 85 86 79 70 69 68 66 67 75 76 71 71 66 69 80 71 65 65
153 154 155 157 158 157 153 145 138 135 135 134 130 126 130 136 128 123 128 133 133 131 136 141 142 152 157 161 166 172 179 185 186 184 169 150 145 143 144 153 150 103 91 93 87 90 85 87 97 92 87 80 74 72 71 74 77 81 81 84 94 100 101 98 95 91 84 84 88 83 75 72 69 67 65 72 77 72 70 67 67 74 74 70 66
156 157 157 158 158 158 154 148 143 141 141 141 138 133 137 143 137 135 142 145 143 140 142 143 142 147 158 167 168 169 178 184 187 184 172 158 151 142 148 161 140 92 79 88 94 98 91 92 97 86 80 77 74 73 69 68 69 71 72 78 87 95 99 95 95 93 84 83 88 87 85 83 79 75 71 71 76 75 74 72 70 71 72 74 73
158 158 160 160 159 159 155 151 152 152 149 144 144 146 144 147 147 147 150 150 145 146 152 153 150 149 153 162 160 161 172 177 179 179 175 164 153 145 150 158 140 109 88 91 89 92 97 96 96 91 83 76 77 81 76 70 63 58 57 69 82 87 94 91 89 93 90 89 89 87 88 89 85 80 76 72 72 76 77 75 76 76 72 73 80
163 159 159 161 160 161 159 159 164 162 158 148 143 147 150 152 153 150 147 143 144 148 150 148 151 151 145 144 152 163 171 170 174 174 172 164 158 159 157 160 156 133 108 101 85 65 88 103 103 101 91 82 84 85 76 66 59 54 51 62 78 79 88 89 84 89 89 87 84 81 82 83 83 80 75 72 72 75 74 72 77 79 72 67 72
170 165 161 162 163 164 164 162 168 166 162 158 150 147 154 159 155 147 140 139 146 147 138 127 125 133 133 136 150 160 164 164 169 163 159 165 171 169 163 171 167 140 122 108 88 59 70 99 111 104 96 96 96 86 74 62 52 53 58 67 79 75 80 82 77 80 78 75 76 77 76 77 80 79 76 74 72 72 72 73 75 74 72 71 69
179 174 168 169 170 168 168 164 168 169 168 168 160 152 154 159 155 146 141 137 141 141 131 123 115 112 124 133 136 142 153 157 161 153 151 174 182 172 162 170 155 134 138 127 96 77 69 82 99 94 96 106 108 99 84 65 51 56 67 69 77 80 82 82 78 78 73 72 75 73 72 73 76 76 76 78 76 74 72 74 75 74 76 77 73
184 180 173 173 174 172 174 174 175 175 175 172 163 156 154 155 152 148 144 135 134 137 128 116 110 110 119 123 122 128 136 146 156 148 152 186 188 173 161 157 143 130 140 134 106 93 76 77 86 81 87 98 99 98 90 80 65 67 71 69 73 80 83 83 84 79 68 70 73 70 69 70 73 74 74 77 79 82 79 77 76 76 76 74 75
185 184 178 178 178 176 181 185 184 180 178 173 164 160 159 159 153 148 144 138 134 133 126 115 109 108 109 109 114 121 121 132 151 146 152 187 184 171 171 161 147 134 143 148 125 114 97 82 80 72 70 71 65 62 74 93 89 82 81 79 79 80 81 78 79 79 73 75 75 72 73 74 75 75 77 77 74 75 77 79 76 73 75 73 76
187 189 185 184 182 183 191 191 185 180 177 174 168 165 166 168 159 146 144 141 140 137 130 120 110 102 97 100 108 114 115 123 142 144 143 169 159 156 170 162 152 149 160 167 148 132 118 93 75 62 51 47 43 36 38 63 94 101 91 87 86 80 78 72 74 84 86 82 76 72 76 83 85 83 83 79 72 70 72 72 68 67 70 70 70
193 192 188 186 185 188 194 190 183 178 176 174 172 170 171 173 163 147 144 137 140 140 132 122 113 105 98 97 101 104 113 121 131 135 134 149 142 132 141 136 139 151 161 168 159 146 136 120 103 92 66 34 24 23 28 39 61 102 115 110 105 82 76 75 76 86 91 88 78 73 73 77 84 87 86 83 76 72 72 69 63 62 64 64 64
196 193 191 190 188 190 191 188 184 180 179 176 174 173 171 171 162 149 143 130 134 138 135 128 114 104 99 96 99 100 108 117 122 130 131 136 134 125 120 113 121 135 138 143 142 136 143 146 134 121 93 21 345 359 20 31 36 48 61 229 205 236 99 125 130 108 98 97 87 73 71 73 79 84 83 82 80 75 73 69 64 66 64 63 65
196 193 191 190 187 187 187 186 183 180 182 180 178 176 173 171 158 150 147 137 140 143 141 134 119 111 105 96 94 94 103 113 115 120 123 125 131 133 127 120 130 141 145 149 144 141 156 169 181 190 242 322 302 308 326 332 344 358 328 306 303 282 272 241 209 199 141 120 115 86 76 77 75 80 79 76 77 73 70 70 70 72 69 68 69
192 189 186 186 183 184 186 185 182 179 180 178 176 174 174 174 162 152 152 148 148 151 148 141 131 130 125 112 101 92 96 106 106 107 110 115 125 128 125 134 147 153 159 164 168 167 167 178 188 197 226 236 23 279 276 285 303 318 318 311 314 297 266 254 235 222 197 164 163 150 99 90 83 83 80 70 66 66 67 72 74 74 73 74 72
185 183 180 183 183 185 187 186 182 179 176 172 171 176 178 180 175 163 156 154 154 161 161 150 142 141 137 133 123 109 105 107 103 99 102 107 116 127 130 140 150 156 164 166 166 165 161 168 178 175 151 129 120 116 300 303 308 319 326 318 308 299 183 177 203 220 207 180 184 187 153 120 106 93 86 75 65 63 70 73 71 69 68 71 70
178 178 178 180 182 185 187 185 182 179 178 178 176 180 184 184 185 177 163 158 158 170 175 159 151 149 140 131 141 156 142 120 109 95 97 100 94 104 119 130 141 151 163 167 162 161 168 179 188 186 166 143 146 173 295 312 324 339 351 4 61 116 127 137 170 199 175 141 178 194 197 187 152 117 106 102 87 74 77 71 63 61 56 53 48
174 175 174 175 177 180 184 182 182 180 178 184 185 185 187 188 189 188 181 172 163 172 182 175 169 163 143 127 147 189 157 140 129 100 98 102 90 93 100 110 125 139 157 166 158 156 178 197 195 184 173 162 149 130 89 63 60 70 62 68 94 106 111 118 114 122 134 131 139 174 204 218 196 156 142 133 117 94 77 58 49 52 44 30 9
173 175 173 174 176 175 177 179 184 186 183 187 191 189 187 190 195 196 195 189 172 170 177 178 178 175 158 130 10 282 149 155 156 113 106 102 93 106 111 111 114 120 137 139 128 136 145 162 164 144 131 123 115 102 87 82 79 82 82 86 99 104 103 106 112 113 116 115 103 99 123 146 145 146 157 162 158 131 88 53 56 53 41 40 41
171 172 171 172 172 170 173 177 183 190 194 197 198 195 191 193 201 202 199 197 186 175 174 174 178 183 171 121 37 106 144 155 168 149 133 109 96 105 109 110 105 99 105 104 105 119 114 113 117 111 104 100 101 96 91 88 84 81 81 86 93 97 99 101 107 110 107 105 98 90 93 99 101 103 110 120 135 136 122 118 72 45 40 59 64
167 167 166 166 168 169 171 174 179 183 192 197 197 199 201 203 207 203 198 203 201 186 179 180 182 182 175 155 87 124 139 143 161 161 151 132 111 100 98 97 94 91 94 98 103 107 103 105 110 107 101 100 101 99 97 95 91 85 83 86 90 93 98 101 103 106 107 105 100 95 95 96 96 95 96 98 100 99 94 90 77 63 60 59 54
162 161 161 161 163 166 168 172 175 177 183 188 189 196 200 205 210 202 197 205 211 207 199 193 193 189 177 169 138 137 137 132 157 164 153 147 130 110 108 100 92 87 92 97 98 99 99 104 108 108 110 107 104 102 103 102 98 94 91 90 92 94 98 102 104 105 105 103 101 100 101 101 99 97 97 96 93 91 87 85 83 76 70 61 53
163 159 158 159 160 164 167 170 171 173 179 181 184 190 194 201 207 201 196 203 211 214 213 207 206 202 191 180 162 157 153 149 166 172 158 152 143 136 139 125 104 88 92 101 101 103 103 104 105 108 114 113 111 111 114 113 107 103 104 101 100 102 104 106 107 106 104 103 102 102 102 103 101 99 98 94 90 86 84 81 77 70 61 53 46
168 164 161 159 159 161 164 167 168 172 180 180 181 187 194 199 201 199 197 200 206 212 216 218 214 210 206 200 189 183 183 179 179 178 169 156 147 142 138 130 122 109 105 108 107 107 105 102 105 110 115 118 120 124 126 124 116 111 109 106 105 106 108 109 109 108 106 104 102 101 101 100 98 97 94 91 88 83 79 75 69 63 57 50 45
173 168 164 159 157 155 157 162 166 174 180 180 180 184 191 194 195 199 201 202 207 210 214 217 213 210 209 207 209 210 214 205 182 180 174 153 147 144 140 136 129 122 121 113 103 101 103 106 110 114 120 125 130 134 132 125 119 117 115 111 110 109 108 108 107 105 104 103 101 99 98 95 93 91 88 85 82 78 75 71 66 61 57 53 50
175 169 164 162 160 157 150 147 149 158 170 176 179 179 183 189 191 196 198 200 206 208 214 214 206 205 206 206 214 215 213 203 179 174 160 146 149 147 144 145 138 135 136 126 114 105 101 109 118 121 125 131 136 135 132 127 124 124 121 117 114 112 110 108 105 103 101 99 98 96 93 91 89 86 84 80 76 73 68 64 60 57 54 52 51
173 168 167 167 164 157 142 124 117 124 148 163 171 172 176 183 185 183 185 193 201 206 211 207 200 200 200 206 215 207 197 191 176 169 160 156 159 153 145 141 137 138 139 135 132 121 112 115 122 128 132 136 138 137 134 131 129 128 124 120 118 115 113 111 108 105 102 99 96 94 91 88 86 83 80 77 72 67 63 59 56 55 54 54 54
168 167 168 165 159 156 146 120 100 100 123 139 148 155 161 171 175 169 168 176 183 189 192 188 190 192 193 203 205 192 190 189 176 172 170 167 165 159 151 142 135 137 138 139 136 125 125 126 123 131 140 142 143 141 138 135 132 132 128 124 122 119 117 114 111 108 104 101 97 93 89 85 82 79 75 72 68 63 58 54 51 49 50 51 51
165 163 160 157 158 160 155 132 104 99 112 119 122 124 128 144 160 166 165 167 164 168 174 176 182 185 187 192 187 185 195 193 177 173 175 172 166 163 158 151 147 143 143 148 141 130 134 136 132 141 149 148 148 145 141 138 137 136 133 129 127 123 120 116 112 109 104 100 96 91 87 83 79 75 71 68 64 60 56 51 46 43 41 42 43
164 159 155 159 165 166 159 143 120 111 116 116 110 107 115 130 142 149 155 156 155 160 166 171 177 180 184 184 179 185 194 187 179 180 185 180 170 167 165 157 154 154 156 157 147 146 155 152 141 153 161 156 154 151 147 146 144 140 138 135 131 127 124 119 114 110 104 100 96 91 87 83 79 75 71 66 61 56 53 49 44 40 35 33 32
166 158 154 161 170 169 161 150 136 126 127 124 110 100 111 130 134 133 138 139 140 149 158 169 175 174 178 179 176 183 186 179 181 186 190 184 175 173 175 169 158 154 155 152 144 149 158 158 147 155 163 162 160 157 154 152 148 143 141 139 136 132 129 124 117 110 106 101 97 93 90 87 82 77 71 64 59 53 47 43 40 36 31 26 22
169 160 156 162 171 172 164 155 145 136 135 133 125 108 107 127 132 121 120 123 126 135 138 145 155 160 166 170 172 178 176 171 179 186 189 184 178 175 177 174 165 156 154 147 145 155 158 158 153 156 162 164 164 160 155 153 150 146 145 144 142 139 134 129 122 114 111 106 101 97 91 85 80 74 68 61 56 49 41 36 32 30 25 18 13
171 163 161 165 170 171 166 157 146 137 140 142 140 129 117 130 130 109 100 103 107 108 110 120 131 140 152 159 162 165 161 164 176 181 183 184 181 178 175 170 157 153 160 142 133 149 158 156 149 156 166 167 165 161 156 155 155 152 151 152 149 147 144 140 135 130 126 121 115 105 94 84 73 64 58 52 47 40 32 24 21 20 17 12 7
171 165 165 164 166 168 165 157 143 130 132 143 147 145 140 141 128 106 96 98 98 92 94 108 118 124 135 142 146 148 150 161 172 175 179 184 187 188 185 175 151 148 164 153 125 144 160 165 156 162 172 171 168 168 164 162 162 161 161 162 161 158 158 156 153 154 150 144 139 128 113 96 61 32 26 28 29 24 17 11 7 6 5 4 1
169 166 165 162 161 163 159 152 141 129 127 140 151 155 157 152 136 114 106 102 96 91 91 100 110 118 125 131 136 139 143 155 163 169 177 184 190 195 197 190 173 158 167 164 141 152 164 169 166 170 177 178 178 179 176 172 171 172 172 173 173 172 172 171 172 178 176 171 172 169 165 202 271 306 326 340 355 2 1 358 355 353 353 354 351
165 165 164 160 158 158 153 145 141 137 134 141 153 160 160 154 146 135 126 120 110 101 92 93 100 112 124 132 138 139 140 150 161 170 179 188 194 199 208 213 213 208 197 190 181 171 166 169 174 178 181 185 188 186 186 186 184 183 185 188 188 188 189 188 191 200 202 199 205 210 216 243 271 290 304 310 323 342 348 348 346 342 342 343 341
164 164 165 164 161 158 152 144 142 144 144 145 155 167 167 158 154 155 150 148 139 124 107 98 95 98 114 132 142 146 150 157 168 178 187 198 206 210 221 230 235 239 230 217 208 194 180 177 181 183 187 191 194 193 192 195 196 195 198 202 201 203 208 207 207 215 219 220 224 229 235 253 274 288 294 300 313 330 337 338 335 332 332 335 334
163 163 164 164 163 163 155 141 135 137 140 143 151 167 175 168 156 150 142 133 128 127 124 118 110 103 107 120 133 149 164 176 187 196 204 213 221 228 237 242 244 253 251 233 216 205 200 190 185 187 190 191 196 199 198 199 202 204 207 211 210 212 217 220 223 229 231 235 238 237 240 252 263 272 279 292 312 324 329 330 327 325 328 331 331
163 164 166 163 159 162 159 143 132 128 130 133 138 155 173 176 164 150 138 130 127 127 124 123 122 116 114 118 124 137 153 179 199 212 221 228 235 240 247 252 250 259 261 243 222 213 212 204 190 189 193 195 197 201 203 203 204 207 210 214 217 221 225 228 232 238 238 238 237 230 227 236 245 255 274 297 315 323 326 326 326 324 325 325 322
166 165 167 167 162 162 161 149 137 130 129 131 132 138 153 167 171 165 154 142 140 140 132 126 123 119 122 129 134 143 151 163 181 198 213 223 234 244 252 262 264 266 259 237 220 213 213 209 197 193 196 199 199 202 206 207 209 212 214 214 217 223 228 228 230 234 231 224 218 214 215 224 240 260 288 306 315 321 323 321 318 313 309 309 308
173 171 167 163 160 162 168 162 145 134 131 132 132 136 146 157 167 178 188 178 159 152 148 144 136 127 134 143 150 166 178 181 184 188 193 201 216 231 241 252 263 266 254 231 212 207 210 210 206 200 198 200 202 203 205 207 211 216 218 218 215 213 218 220 218 213 206 199 195 197 208 220 247 279 298 309 312 313 310 298 289 290 296 301 305
169 174 170 159 155 164 177 185 172 150 139 136 137 144 162 180 193 207 209 203 192 185 184 190 199 196 190 196 197 194 196 198 197 196 194 196 211 234 249 259 269 272 263 243 217 206 208 211 211 204 201 203 203 202 203 208 212 215 218 220 217 204 201 204 205 201 192 183 180 187 204 220 248 280 287 288 290 287 281 279 283 290 296 300 305
164 178 166 138 123 186 216 209 198 176 159 157 164 178 197 218 241 250 234 221 216 219 227 236 245 246 244 244 246 246 240 232 229 230 232 238 255 271 281 282 282 276 266 252 233 217 211 216 218 210 207 210 208 206 209 213 216 217 220 221 215 200 191 180 186 199 196 187 183 190 213 234 249 259 236 232 259 265 254 268 279 286 295 300 304
218 218 197 124 40 292 271 252 224 202 186 185 197 213 226 235 244 251 251 243 238 239 245 251 253 252 253 258 259 259 261 259 258 257 258 265 273 274 277 278 278 274 267 254 242 234 227 225 224 219 218 221 219 217 217 218 221 223 223 221 209 197 195 190 188 198 198 196 192 190 220 248 248 215 198 218 244 252 252 264 278 290 303 308 307
257 235 213 218 270 267 266 266 256 233 215 213 221 232 240 244 248 252 253 249 246 248 252 255 256 254 255 260 265 267 267 266 264 263 262 264 267 268 268 268 268 268 265 258 249 244 241 237 232 229 229 228 226 228 227 226 227 227 223 219 209 200 202 204 198 190 193 200 201 195 219 244 235 201 200 222 239 253 264 276 293 304 309 307 302
252 236 198 214 240 249 255 257 257 251 240 234 235 240 244 247 251 256 257 255 253 253 258 264 268 269 269 272 276 279 279 276 274 271 272 272 270 268 266 263 263 264 262 259 256 252 250 245 239 237 241 240 235 238 240 235 231 227 221 215 208 203 203 202 193 184 190 198 201 205 217 222 217 211 212 225 245 268 280 290 300 303 302 298 292
217 203 182 203 224 236 240 240 241 245 247 247 248 251 254 255 256 257 258 259 259 260 264 268 268 268 272 278 280 280 282 283 280 277 279 281 278 274 270 266 265 263 261 258 256 255 254 250 244 245 252 252 246 247 251 244 234 227 220 211 203 197 193 191 190 193 201 206 204 215 225 206 204 222 226 228 258 279 282 289 295 295 293 288 282
144 143 151 170 189 198 203 202 201 207 215 233 254 261 265 264 261 257 256 257 258 261 266 270 272 274 278 283 283 282 284 286 285 284 285 285 285 283 280 276 271 265 261 259 257 256 254 253 252 253 257 259 256 253 253 244 233 227 223 215 204 193 186 187 192 195 206 216 211 215 236 214 208 244 250 240 265 280 279 285 291 290 283 278 277
115 116 119 128 142 150 152 148 135 130 155 199 222 234 247 262 268 266 263 263 263 263 266 270 275 278 281 284 285 285 287 289 289 289 288 287 286 285 281 278 274 269 265 263 260 258 256 255 255 256 257 259 256 250 247 239 228 221 215 203 191 186 182 179 182 186 196 213 209 204 242 239 225 250 261 258 273 284 283 280 283 284 277 274 280
108 106 105 108 119 128 128 126 110 91 65 264 247 240 250 265 276 280 280 280 274 269 269 271 273 275 276 278 281 284 284 285 287 289 290 290 289 286 284 281 279 275 270 267 263 261 259 258 255 255 256 253 245 238 230 216 207 203 195 183 178 181 180 177 178 180 184 202 209 207 232 241 228 247 271 274 274 279 280 266 271 288 292 290 294
96 95 96 94 92 95 96 94 95 94 93 277 278 277 274 279 284 282 280 280 279 275 275 277 278 278 278 278 279 281 282 284 287 288 290 291 288 286 284 281 277 274 271 269 265 260 259 256 250 246 244 236 226 217 203 190 191 198 198 197 193 187 189 197 185 170 168 193 212 214 220 234 237 260 285 288 276 264 262 258 272 300 307 305 305
86 85 87 86 82 80 81 83 85 85 79 37 350 339 307 281 280 278 274 277 280 281 281 283 285 285 285 283 281 280 281 283 284 283 283 284 282 282 280 275 271 268 267 267 261 255 251 244 233 226 223 217 206 199 194 191 198 201 197 200 198 190 200 210 181 170 176 184 198 211 223 254 273 278 300 310 300 269 243 264 283 299 307 310 312